EW4921 Weather Reports


Display with metric or nautical units.
time (UTC)temp
F
wind
direction
speed
MPH
gust
MPH
rain 1hr
in
rain 24hr
in
rain mn
in
humidity
%
barometer
mb
20260507004039 68 277 2.0 8.0 0.00 0.00 0.00 58 1016.3
20260507003519 68 240 2.0 6.0 0.00 0.00 0.00 58 1016.7
20260507003036 69 262 2.0 7.0 0.00 0.00 0.00 58 1016.3
20260507002535 69 19 2.0 6.0 0.00 0.00 0.00 58 1016.3
20260507002047 69 339 2.0 6.0 0.00 0.00 0.00 58 1016.2
20260507001544 70 174 3.0 7.0 0.00 0.00 0.00 58 1016.2
20260507001016 70 248 2.0 8.0 0.00 0.00 0.00 58 1016.2
20260507000559 70 229 1.0 8.0 0.00 0.00 0.00 58 1016.2
20260507000045 70 340 3.0 6.0 0.00 0.00 0.00 58 1016.3
20260506235526 70 255 3.0 8.0 0.00 0.00 0.00 58 1016.2
20260506235016 70 240 2.0 8.0 0.00 0.00 0.00 57 1016.2
20260506234537 70 337 3.0 12.0 0.00 0.00 0.00 58 1016.2
20260506234034 70 339 3.0 12.0 0.00 0.00 0.00 57 1016.2
20260506233556 70 252 3.0 9.0 0.00 0.00 0.00 57 1016.1
20260506233045 70 333 3.0 9.0 0.00 0.00 0.00 57 1016.1
20260506232514 70 191 1.0 9.0 0.00 0.00 0.00 58 1016.2
20260506232026 70 247 3.0 9.0 0.00 0.00 0.00 58 1016.2
20260506231521 70 286 3.0 12.0 0.00 0.00 0.00 58 1016.3
20260506231033 70 319 3.0 12.0 0.00 0.00 0.00 58 1016.3
20260506230557 71 336 3.0 9.0 0.00 0.00 0.00 57 1016.3
20260506230019 71 198 2.0 10.0 0.00 0.00 0.00 57 1016.3
20260506225515 71 335 2.0 10.0 0.00 0.00 0.00 57 1016.4
20260506225029 72 333 3.0 9.0 0.00 0.00 0.00 56 1016.4
20260506224552 72 210 3.0 9.0 0.00 0.00 0.00 56 1016.3
20260506224023 72 341 3.0 10.0 0.00 0.00 0.00 56 1016.5
20260506223523 72 242 4.0 9.0 0.00 0.00 0.00 56 1016.6
20260506223032 72 315 3.0 8.0 0.00 0.00 0.00 56 1016.6
20260506222555 72 297 1.0 7.0 0.00 0.00 0.00 57 1016.6
20260506222024 72 351 1.0 6.0 0.00 0.00 0.00 57 1016.6
20260506221524 72 360 1.0 10.0 0.00 0.00 0.00 56 1016.8
20260506221023 72 360 1.0 10.0 0.00 0.00 0.00 56 1017.0
20260506220606 72 202 2.0 8.0 0.00 0.00 0.00 56 1017.0
20260506220018 73 298 2.0 9.0 0.00 0.00 0.00 56 1017.1
20260506215559 73 319 3.0 9.0 0.00 0.00 0.00 55 1017.1
20260506215027 73 328 3.0 10.0 0.00 0.00 0.00 55 1017.2
20260506214523 73 268 4.0 10.0 0.00 0.00 0.00 56 1017.3
20260506214057 73 325 0.0 4.0 0.00 0.00 0.00 56 1017.3
20260506213536 72 306 0.0 5.0 0.00 0.00 0.00 57 1017.4
20260506213028 72 344 1.0 8.0 0.00 0.00 0.00 59 1017.4
20260506212529 72 331 1.0 6.0 0.00 0.00 0.00 58 1017.4
20260506212039 72 337 4.0 9.0 0.00 0.00 0.00 57 1017.4
20260506211536 72 241 1.0 9.0 0.00 0.00 0.00 59 1017.4
20260506211027 72 341 3.0 10.0 0.00 0.00 0.00 57 1017.4
20260506210551 73 200 2.0 10.0 0.00 0.00 0.00 57 1017.4
20260506210016 73 293 2.0 9.0 0.00 0.00 0.00 57 1017.4
20260506205538 74 279 3.0 8.0 0.00 0.00 0.00 57 1017.4
20260506205023 73 205 0.0 8.0 0.00 0.00 0.00 59 1017.4
20260506204522 72 355 0.0 8.0 0.00 0.00 0.00 60 1017.5
20260506204021 72 334 0.0 4.0 0.00 0.00 0.00 59 1017.4
20260506203514 72 331 0.0 8.0 0.00 0.00 0.00 58 1017.5
20260506203052 72 39 0.0 8.0 0.00 0.00 0.00 59 1017.4
20260506202536 73 347 2.0 7.0 0.00 0.00 0.00 57 1017.6
20260506202024 73 292 1.0 7.0 0.00 0.00 0.00 58 1017.4
20260506201544 74 329 3.0 6.0 0.00 0.00 0.00 55 1017.6
20260506201023 73 315 1.0 6.0 0.00 0.00 0.00 55 1017.5
20260506200548 74 34 1.0 5.0 0.00 0.00 0.00 57 1017.6
20260506200031 73 229 1.0 8.0 0.00 0.00 0.00 55 1017.6
20260506195520 73 339 2.0 9.0 0.00 0.00 0.00 55 1017.6
20260506195020 73 221 1.0 9.0 0.00 0.00 0.00 53 1017.7
20260506194516 73 200 2.0 8.0 0.00 0.00 0.00 52 1017.7
20260506194013 73 252 3.0 8.0 0.00 0.00 0.00 52 1017.6
20260506193534 72 124 0.0 3.0 0.00 0.00 0.00 53 1017.7
20260506193023 72 308 0.0 3.0 0.00 0.00 0.00 53 1017.7
20260506192519 72 286 0.0 4.0 0.00 0.00 0.00 53 1017.8
20260506192030 72 211 0.0 4.0 0.00 0.00 0.00 54 1017.8
20260506191521 72 192 0.0 3.0 0.00 0.00 0.00 54 1017.9
20260506191033 71 142 0.0 4.0 0.00 0.00 0.00 51 1017.9
20260506190553 72 225 0.0 4.0 0.00 0.00 0.00 51 1018.0
20260506190055 72 237 0.0 4.0 0.00 0.00 0.00 53 1018.0
20260506185536 72 298 1.0 7.0 0.00 0.00 0.00 52 1018.0
20260506185048 72 194 1.0 7.0 0.00 0.00 0.00 53 1018.0
20260506184545 71 190 1.0 10.0 0.00 0.00 0.00 51 1018.0
20260506184017 71 225 3.0 10.0 0.00 0.00 0.00 53 1018.1
20260506183536 70 207 0.0 6.0 0.00 0.00 0.00 53 1018.1
20260506183024 71 287 0.0 6.0 0.00 0.00 0.00 52 1018.0
20260506182546 70 189 0.0 4.0 0.00 0.00 0.00 55 1018.1
20260506182018 69 196 0.0 6.0 0.00 0.00 0.00 54 1018.2
20260506181536 69 186 0.0 6.0 0.00 0.00 0.00 55 1018.3
20260506181043 69 229 0.0 4.0 0.00 0.00 0.00 55 1018.4
20260506180548 69 239 0.0 5.0 0.00 0.00 0.00 58 1018.5
20260506180017 68 218 2.0 5.0 0.00 0.00 0.00 56 1018.5
20260506175519 68 344 1.0 7.0 0.00 0.00 0.00 56 1018.4
20260506175030 68 261 1.0 7.0 0.00 0.00 0.00 54 1018.4
20260506174517 68 221 1.0 5.0 0.00 0.00 0.00 55 1018.4
20260506174036 68 202 0.0 4.0 0.00 0.00 0.00 58 1018.4
20260506173557 67 215 1.0 5.0 0.00 0.00 0.00 58 1018.5
20260506173023 67 186 1.0 4.0 0.00 0.00 0.00 58 1018.5
20260506172525 67 220 0.0 4.0 0.00 0.00 0.00 58 1018.5
20260506172032 66 221 1.0 4.0 0.00 0.00 0.00 59 1018.6
20260506171533 66 257 1.0 4.0 0.00 0.00 0.00 60 1018.5
20260506171025 66 204 0.0 0.0 0.00 0.00 0.00 60 1018.4
20260506170540 66 203 0.0 0.0 0.00 0.00 0.00 60 1018.5
20260506170051 65 203 0.0 0.0 0.00 0.00 0.00 61 1018.5
20260506165530 65 205 0.0 4.0 0.00 0.00 0.00 61 1018.6
20260506165017 65 202 2.0 4.0 0.00 0.00 0.00 62 1018.5
20260506164517 64 192 0.0 5.0 0.00 0.00 0.00 62 1018.5
20260506164013 64 197 2.0 5.0 0.00 0.00 0.00 64 1018.4
20260506163534 63 211 0.0 0.0 0.00 0.00 0.00 64 1018.4
20260506163044 63 209 0.0 4.0 0.00 0.00 0.00 66 1018.5
20260506162538 62 214 2.0 4.0 0.00 0.00 0.00 67 1018.5
20260506162014 62 215 0.0 4.0 0.00 0.00 0.00 70 1018.5
20260506161535 61 200 1.0 3.0 0.00 0.00 0.00 69 1018.5
20260506161045 60 231 0.0 4.0 0.00 0.00 0.00 72 1018.4
20260506160547 59 180 1.0 4.0 0.00 0.00 0.00 75 1018.4
20260506160016 58 167 1.0 5.0 0.00 0.00 0.00 80 1018.4
20260506155519 57 186 0.0 4.0 0.00 0.00 0.00 84 1018.6
20260506155031 57 186 2.0 4.0 0.00 0.00 0.00 90 1018.7
20260506154531 56 215 0.0 4.0 0.00 0.00 0.00 93 1018.6
20260506154022 55 213 2.0 4.0 0.00 0.00 0.00 94 1018.5
20260506153523 54 217 0.0 2.0 0.00 0.00 0.00 94 1018.5
20260506153016 54 217 0.0 1.0 0.00 0.00 0.00 94 1018.5
20260506152517 53 217 0.0 0.0 0.00 0.00 0.00 94 1018.5
20260506152016 52 217 0.0 0.0 0.00 0.00 0.00 94 1018.6
20260506151536 51 217 0.0 0.0 0.00 0.00 0.00 94 1018.6
20260506151027 50 217 0.0 0.0 0.00 0.00 0.00 94 1018.5
20260506150604 49 217 0.0 0.0 0.00 0.00 0.00 93 1018.5
20260506150025 48 217 0.0 0.0 0.00 0.00 0.00 93 1018.6
20260506145523 47 217 0.0 0.0 0.00 0.00 0.00 93 1018.6
20260506145021 46 217 0.0 0.0 0.00 0.00 0.00 92 1018.5
20260506144522 46 217 0.0 0.0 0.00 0.00 0.00 92 1018.5
20260506144015 46 217 0.0 0.0 0.00 0.00 0.00 92 1018.5
20260506143536 45 217 0.0 0.0 0.00 0.00 0.00 92 1018.5
20260506143043 45 217 0.0 0.0 0.00 0.00 0.00 92 1018.5
20260506142516 45 217 0.0 0.0 0.00 0.00 0.00 92 1018.4
20260506142015 45 217 0.0 0.0 0.00 0.00 0.00 92 1018.5
20260506141537 45 217 0.0 0.0 0.00 0.00 0.00 92 1018.5
20260506141023 44 217 0.0 0.0 0.00 0.00 0.00 92 1018.4
20260506140615 44 217 0.0 0.0 0.00 0.00 0.00 92 1018.4
20260506140018 44 217 0.0 0.0 0.00 0.00 0.00 91 1018.3
20260506135540 44 217 0.0 0.0 0.00 0.00 0.00 91 1018.4
20260506135031 44 217 0.0 0.0 0.00 0.00 0.00 91 1018.4
20260506134555 44 217 0.0 0.0 0.00 0.00 0.00 91 1018.3
20260506134024 44 217 0.0 0.0 0.00 0.00 0.00 91 1018.3
20260506133521 44 217 0.0 0.0 0.00 0.00 0.00 91 1018.1
20260506133054 44 217 0.0 0.0 0.00 0.00 0.00 91 1018.1
20260506132533 44 217 0.0 0.0 0.00 0.00 0.00 91 1018.0
20260506132025 44 217 0.0 0.0 0.00 0.00 0.00 91 1018.1
20260506131548 44 217 0.0 0.0 0.00 0.00 0.00 91 1018.0
20260506131036 44 217 0.0 0.0 0.00 0.00 0.00 91 1017.9
20260506130603 44 217 0.0 0.0 0.00 0.00 0.00 91 1018.0
20260506130014 44 217 0.0 0.0 0.00 0.00 0.00 91 1017.9
20260506125532 44 217 0.0 0.0 0.00 0.00 0.00 91 1017.8
20260506125021 44 217 0.0 0.0 0.00 0.00 0.00 91 1017.7
20260506124518 44 217 0.0 0.0 0.00 0.00 0.00 91 1017.7
20260506124030 44 217 0.0 0.0 0.00 0.00 0.00 91 1017.6
20260506123531 44 217 0.0 1.0 0.00 0.00 0.00 91 1017.6
20260506123023 44 217 0.0 1.0 0.00 0.00 0.00 91 1017.6
20260506122525 44 230 0.0 0.0 0.00 0.00 0.00 91 1017.6
20260506122017 44 230 0.0 0.0 0.00 0.00 0.00 90 1017.6
20260506121533 44 230 0.0 0.0 0.00 0.00 0.00 90 1017.5
20260506121026 44 230 0.0 0.0 0.00 0.00 0.00 90 1017.5
20260506120550 44 230 0.0 0.0 0.00 0.00 0.00 90 1017.5
20260506120043 44 230 0.0 0.0 0.00 0.00 0.00 90 1017.6
20260506115522 44 230 0.0 0.0 0.00 0.00 0.00 90 1017.5
20260506115013 44 230 0.0 0.0 0.00 0.00 0.00 90 1017.5
20260506114532 44 230 0.0 0.0 0.00 0.00 0.00 90 1017.6
20260506114023 44 230 0.0 0.0 0.00 0.00 0.00 90 1017.5
20260506113524 45 230 0.0 0.0 0.00 0.00 0.00 90 1017.5
20260506113022 45 230 0.0 0.0 0.00 0.00 0.00 90 1017.5
20260506112520 45 230 0.0 0.0 0.00 0.00 0.00 90 1017.4
20260506112027 45 230 0.0 0.0 0.00 0.00 0.00 90 1017.4
20260506111527 45 230 0.0 0.0 0.00 0.00 0.00 90 1017.4
20260506111026 45 230 0.0 0.0 0.00 0.00 0.00 90 1017.3
20260506110543 45 230 0.0 0.0 0.00 0.00 0.00 90 1017.4
20260506110031 45 230 0.0 0.0 0.00 0.00 0.00 90 1017.4
20260506105532 45 230 0.0 0.0 0.00 0.00 0.00 90 1017.4
20260506105019 45 230 0.0 0.0 0.00 0.00 0.00 90 1017.5
20260506104515 45 230 0.0 0.0 0.00 0.00 0.00 90 1017.4
20260506104027 45 230 0.0 0.0 0.00 0.00 0.00 89 1017.5
20260506103526 45 230 0.0 0.0 0.00 0.00 0.00 89 1017.5
20260506103019 45 230 0.0 0.0 0.00 0.00 0.00 89 1017.4
20260506102518 45 230 0.0 0.0 0.00 0.00 0.00 89 1017.5
20260506102054 46 230 0.0 0.0 0.00 0.00 0.00 89 1017.5
20260506101514 46 230 0.0 0.0 0.00 0.00 0.00 89 1017.6
20260506101027 46 230 0.0 0.0 0.00 0.00 0.00 89 1017.6
20260506100601 46 230 0.0 0.0 0.00 0.00 0.00 89 1017.6
20260506100047 46 230 0.0 0.0 0.00 0.00 0.00 89 1017.6
20260506095544 46 230 0.0 0.0 0.00 0.00 0.00 89 1017.6
20260506095021 46 230 0.0 0.0 0.00 0.00 0.00 89 1017.6
20260506094515 46 230 0.0 0.0 0.00 0.00 0.00 89 1017.7
20260506094032 46 230 0.0 0.0 0.00 0.00 0.00 89 1017.7
20260506093554 46 230 0.0 0.0 0.00 0.00 0.00 88 1017.7
20260506093020 46 230 0.0 0.0 0.00 0.00 0.00 88 1017.7
20260506092522 46 230 0.0 0.0 0.00 0.00 0.00 88 1017.7
20260506092033 46 230 0.0 0.0 0.00 0.00 0.00 88 1017.7
20260506091534 46 230 0.0 0.0 0.00 0.00 0.00 88 1017.8
20260506091047 46 230 0.0 0.0 0.00 0.00 0.00 88 1017.9
20260506090549 46 230 0.0 0.0 0.00 0.00 0.00 88 1017.9
20260506090031 47 230 0.0 0.0 0.00 0.00 0.00 88 1017.9
20260506085533 47 230 0.0 0.0 0.00 0.00 0.00 88 1017.9
20260506085022 47 230 0.0 0.0 0.00 0.00 0.00 88 1017.9
20260506084538 47 230 0.0 0.0 0.00 0.00 0.00 88 1017.9
20260506084049 47 230 0.0 0.0 0.00 0.00 0.00 87 1018.0
20260506083523 47 230 0.0 0.0 0.00 0.00 0.00 87 1018.0
20260506083022 47 230 0.0 0.0 0.00 0.00 0.00 87 1018.0
20260506082517 47 230 0.0 0.0 0.00 0.00 0.00 87 1018.1
20260506082014 47 230 0.0 0.0 0.00 0.00 0.00 87 1018.0
20260506081536 48 230 0.0 0.0 0.00 0.00 0.00 87 1018.2
20260506081028 48 230 0.0 0.0 0.00 0.00 0.00 87 1018.0
20260506080540 48 230 0.0 0.0 0.00 0.00 0.00 87 1017.9
20260506073523 49 230 0.0 0.0 0.00 0.00 0.00 87 1018.0
20260506073021 49 230 0.0 0.0 0.00 0.00 0.00 86 1018.0
20260506072523 49 230 0.0 0.0 0.00 0.00 0.00 87 1018.0
20260506072023 49 230 0.0 0.0 0.00 0.00 0.00 86 1018.0
20260506071520 49 230 0.0 0.0 0.00 0.00 0.00 86 1018.0
20260506071040 49 230 0.0 0.0 0.00 0.00 0.00 86 1018.0
20260506070605 49 230 0.0 0.0 0.00 0.00 0.00 86 1017.8
20260506062041 50 230 0.0 0.0 0.00 0.00 0.00 85 1017.2
20260506061535 50 230 0.0 0.0 0.00 0.00 0.00 85 1017.2
20260506061025 50 230 0.0 0.0 0.00 0.00 0.00 85 1017.2
20260506060548 51 230 0.0 0.0 0.00 0.00 0.00 85 1017.2
20260506051024 52 230 0.0 0.0 0.00 0.00 0.00 81 1016.9
20260506050549 52 230 0.0 0.0 0.00 0.00 0.00 81 1016.9
20260506045024 53 230 0.0 0.0 0.00 0.00 0.00 79 1016.6
20260506044522 53 230 0.0 0.0 0.00 0.00 0.00 79 1016.6
20260506044021 53 230 0.0 0.0 0.00 0.00 0.00 78 1016.4
20260506043523 54 230 0.0 0.0 0.00 0.00 0.00 77 1016.5
20260506043018 54 230 0.0 0.0 0.00 0.00 0.00 77 1016.4
20260506042520 54 230 0.0 0.0 0.00 0.00 0.00 77 1016.4
20260506042019 55 230 0.0 0.0 0.00 0.00 0.00 77 1016.2
20260506041520 55 230 0.0 0.0 0.00 0.00 0.00 76 1016.3
20260506041033 55 230 0.0 0.0 0.00 0.00 0.00 76 1016.2
20260506040556 55 230 0.0 0.0 0.00 0.00 0.00 75 1016.2
20260506040017 56 230 0.0 0.0 0.00 0.00 0.00 75 1016.2
20260506035516 56 230 0.0 0.0 0.00 0.00 0.00 75 1016.1
20260506035048 56 230 0.0 0.0 0.00 0.00 0.00 75 1016.0
20260506034521 56 230 0.0 0.0 0.00 0.00 0.00 74 1015.9
20260506034019 57 230 0.0 0.0 0.00 0.00 0.00 74 1016.0
20260506033520 57 230 0.0 0.0 0.00 0.00 0.00 73 1015.9
20260506033014 57 230 0.0 0.0 0.00 0.00 0.00 73 1015.8
20260506032517 57 230 0.0 0.0 0.00 0.00 0.00 72 1015.5
20260506032014 58 230 0.0 0.0 0.00 0.00 0.00 72 1015.4
20260506031556 58 230 0.0 0.0 0.00 0.00 0.00 72 1015.4
20260506031026 58 230 0.0 0.0 0.00 0.00 0.00 72 1015.3
20260506030547 58 230 0.0 0.0 0.00 0.00 0.00 71 1015.3
20260506030019 58 230 0.0 0.0 0.00 0.00 0.00 71 1015.2
20260506025540 58 230 0.0 0.0 0.00 0.00 0.00 71 1015.1
20260506025026 59 230 0.0 0.0 0.00 0.00 0.00 71 1015.1
20260506024547 59 230 0.0 0.0 0.00 0.00 0.00 71 1015.0
20260506024022 59 230 0.0 0.0 0.00 0.00 0.00 70 1015.1
20260506023521 59 230 0.0 0.0 0.00 0.00 0.00 70 1015.0
20260506023019 59 230 0.0 0.0 0.00 0.00 0.00 70 1014.9
20260506022541 59 231 0.0 0.0 0.00 0.00 0.00 70 1014.9
20260506022059 59 231 0.0 0.0 0.00 0.00 0.00 69 1014.8
20260506021537 59 231 0.0 0.0 0.00 0.00 0.00 69 1014.8
20260506021024 59 231 0.0 0.0 0.00 0.00 0.00 69 1014.8
20260506020548 59 231 0.0 0.0 0.00 0.00 0.00 68 1014.7
20260506020022 59 231 0.0 0.0 0.00 0.00 0.00 68 1014.6
20260506015522 59 231 0.0 0.0 0.00 0.00 0.00 68 1014.7
20260506015033 59 231 0.0 3.0 0.00 0.00 0.00 67 1014.7
20260506014534 59 221 0.0 3.0 0.00 0.00 0.00 67 1014.8
20260506014021 59 200 0.0 1.0 0.00 0.00 0.00 66 1014.7
20260506013515 59 200 0.0 4.0 0.00 0.00 0.00 66 1014.7
20260506013045 59 200 1.0 4.0 0.00 0.00 0.00 66 1014.7
20260506012523 59 335 0.0 2.0 0.00 0.00 0.00 66 1014.7
20260506012021 59 339 0.0 9.0 0.00 0.00 0.00 66 1014.7
20260506011520 59 339 1.0 9.0 0.00 0.00 0.00 65 1014.8
20260506011035 60 182 1.0 10.0 0.00 0.00 0.00 65 1014.9
20260506010557 60 344 2.0 10.0 0.00 0.00 0.00 65 1014.8
20260506010022 60 332 3.0 9.0 0.00 0.00 0.00 65 1014.7
20260506005536 60 28 2.0 10.0 0.00 0.00 0.00 65 1014.7
20260506005027 60 242 2.0 10.0 0.00 0.00 0.00 65 1014.6
20260506004524 61 350 2.0 10.0 0.00 0.00 0.00 64 1014.6